Regional Weather Roundup
Issued by NWS

Home | Current Version | Previous Version | Graphics & Text | Print | Product List | Glossary On
Versions: 1 2 3 4 5 6 7 8 9 10 11 12 13 14 15 16 17 18 19 20 21 22 23 24 25 26 27 28 29 30 31 32 33 34 35 36 37 38 39 40 41 42 43 44 45 46 47 48 49 50
000
ASUS45 KTFX 290619
RWRMT
MONTANA HOURLY WEATHER ROUNDUP
NATIONAL WEATHER SERVICE GREAT FALLS MT
1219 AM MDT FRI AUG 29 2014

NOTE: "FAIR" INDICATES FEW OR NO CLOUDS BELOW 12000 FEET WITH NO
SIGNIFICANT WEATHER AND/OR OBSTRUCTIONS TO VISIBILITY.

* THESE STATIONS ARE NOT UNDER NWS QUALITY CONTROL. THEY DO NOT
   REPORT WEATHER SUCH AS PRECIPITATION OR FOG.

MTZ001>007-043-290700-
WEST OF THE DIVIDE
CITY           SKY/WX    TMP DP  RH WIND       PRES   REMARKS
KALISPELL      MOCLDY    63  50  63 N15       30.02R
MISSOULA       PTCLDY    61  43  52 NW6       30.03R
BUTTE          MOCLDY    64  36  35 NW7       30.11S
MULLAN PASS    CLEAR     55  37  51 W6        30.15S
* LINCOLN      N/A       59  48  67 NE15G22    N/A
* LOOKOUT PASS N/A       55  40  57 N/A        N/A
* POLSON       N/A       62  45  54 NW1        N/A
* RONAN APT    PTCLDY    64  43  47 N/A        N/A
* SEELEY LAKE  N/A       52  43  72 N2         N/A
* THOMP F APT  CLEAR     53  46  77 NE2G15     N/A
$$

MTZ008-052>055-290700-
SOUTHWEST MONTANA
CITY           SKY/WX    TMP DP  RH WIND       PRES   REMARKS
BOZEMAN        CLOUDY    64  50  61 S7        30.05S
DILLON         MOCLDY    63  45  52 S5        30.08R
W YELLOWSTONE  CLOUDY    52  48  86 NE10      30.22F
* THREE FORKS  CLOUDY    72  52  49 N/A        N/A
* BOULDER HILL N/A       61  30  31 N10        N/A
* MONIDA PASS  N/A       50  47  89 W3         N/A
* RAYNOLDS PAS N/A       53  34  49 SE15G20    N/A
* WHITEHALL    N/A       71  35  27 NE5        N/A
* WISE RIVER   N/A       58  39  49 SE4        N/A
$$

MTZ009>010-012-014-046-048-049-054-290700-
EAST SLOPES AND CENTRAL MONTANA
CITY           SKY/WX    TMP DP  RH WIND       PRES   REMARKS
CUT BANK       CLOUDY    52  48  86 NW12      30.11F
GREAT FALLS    CLOUDY    54  50  86 NW10      30.13R
HELENA         CLOUDY    61  48  62 NW12G21   30.10R
MALMSTROM AFB  CLOUDY    55  50  83 N9        30.15R
* CONRAD       PTCLDY    52  52 100 NW5        N/A
* EAST GLACIER N/A       46  45  96 NW4        N/A
* MONARCH      N/A       50  46  86 NW14       N/A
* PENDROY      N/A       49  48  96 N6G12      N/A
* SAINT MARY   N/A       47  46  96 SE1G7      N/A
* SWEET GRASS  N/A       49  49 100 NW7        N/A
* WHITE SULPH  N/A       59  28  31 NW18G29    N/A
$$

MTZ011-013-016-021-035-040-045-047-050-051-290700-
NORTH CENTRAL MONTANA
CITY           SKY/WX    TMP DP  RH WIND       PRES   REMARKS
HAVRE          CLOUDY    57  52  83 SW6       30.04R
* CHINOOK      PTCLDY    59  52  78 SW6       30.02R
* FORT BENTON  MOCLDY    59  50  72 W6        30.11R
* CHESTER      N/A       54  47  77 N/A        N/A
* DENTON       N/A       59  50  72 NW20G30    N/A
* JUDITH GAP   N/A       59  53  81 N24G31     N/A
* LOMA         N/A       59  52  78 W11        N/A
$$

MTZ017>020-022>027-061-062-290700-
NORTHEAST MONTANA
CITY           SKY/WX    TMP DP  RH WIND       PRES   REMARKS
GLASGOW        TSTM      63  57  81 N29G37    29.88R
GLENDIVE       CLEAR     59  54  84 S3        29.82F
JORDAN         PTCLDY    70  55  59 NW18G45   29.89R
SIDNEY         CLEAR     64  54  70 N5        29.80S
WOLF POINT     MOCLDY    68  55  63 N36G46    29.85R
* BEAVER HILL  N/A       71  49  46 N/A        N/A
* CIRCLE       N/A       61  54  78 N/A        N/A
* LINDSAY DVD  N/A       63  49  60 NW3        N/A
* NAVAJO       N/A       62  54  75 VRB19G24    N/A
$$

MTZ028>042-056>058-290700-
SOUTHCENTRAL AND SOUTHEAST MONTANA
CITY           SKY/WX    TMP DP  RH WIND       PRES   REMARKS
BAKER          CLEAR     63  55  75 CALM      29.86F
BILLINGS       TSTM      64  55  73 W22       29.98R VSB 3
LIVINGSTON     CLOUDY    66  48  52 W13       30.06R
MILES CITY     CLEAR     66  48  52 S5        29.83S
* LAUREL APT   CLOUDY    66  54  65 N/A        N/A
* ROUNDUP APT  PTCLDY    64  52  65 W8         N/A
* ALZADA       N/A       60  50  70 E2         N/A
* LAME DEER    N/A       70  45  41 SE3        N/A
* REED POINT   N/A       65  54  68 W9         N/A
* ROSCOE HILL  N/A       64  40  41 S16G26     N/A
$$

REGIONAL REPORTS...DAKOTAS
CITY           SKY/WX    TMP DP  RH WIND       PRES   REMARKS
WILLISTON      CLEAR     70  55  59 N3        29.78R
DICKINSON      CLEAR     63  55  75 S12       29.81F
BEACH          N/A       57  57 100 SW3       29.84F
CROSBY         CLEAR     61  61 100 NW6       29.79R
TIOGA          CLEAR     55  55 100 W6        29.80S
WATFORD CITY   CLEAR     63  52  68 SW6       29.76F
BISMARCK       MOCLDY    64  64 100 S3        29.81F
GRAND FORKS    CLOUDY    66  64  93 S12       29.81F
FARGO          CLOUDY    66  64  93 SE10      29.82F
BUFFALO SD     CLEAR     64  54  70 S6        29.81F
RAPID CITY     PTCLDY    55  55 100 CALM      29.92F
$$

REGIONAL REPORTS...WYOMING/IDAHO/WASHINGTON
CITY           SKY/WX    TMP DP  RH WIND       PRES   REMARKS
GILLETTE       CLEAR     57  48  72 S8        29.96F
SHERIDAN       CLEAR     61  46  58 S5        29.94F
CODY           PTCLDY    66  45  47 NW13G25   30.09R
YELLOWSTONE LA MOCLDY    48  46  93 NE3       30.35F
SALMON         PTCLDY    61  46  58 S3        30.03R
MULLAN PASS    CLEAR     55  37  51 W6        30.15S
SAND POINT     PTCLDY    55  52  90 CALM      29.97S
SPOKANE        PTCLDY    70  43  38 SW9       29.95S
$$

REGIONAL REPORTS...ALBERTA
CITY           SKY/WX    TMP DP  RH WIND       PRES   REMARKS
CALGARY        N/A       48  45  89 SW6       30.07F
LETHBRIDGE     CLOUDY    52  50  93 SW9       30.10S
MEDICINE HAT   CLOUDY    54  52  93 W8        30.06S
EDMONTON       N/A       43  39  86 S8        29.99S
WATERTON GATE  N/A       43  41  93 E2         N/A
CARDSTON       N/A       48  48 100 E1         N/A
MILK RIVER     N/A       50  50 100 NW6        N/A
$$

REGIONAL REPORTS...SASKATCHEWAN
CITY           SKY/WX    TMP DP  RH WIND       PRES   REMARKS
SWIFT CURRENT  CLOUDY    54  52  93 N9        29.99R
REGINA         LGT RAIN  59  57  93 N16       29.88R
VAL MARIE      N/A       55  54  96 NE10       N/A
ASSINIBOIA     N/A       57  54  90 N12        N/A
CORONACH       N/A       59  55  87 NW13G20    N/A

$$



USA.gov is the U.S. government's official web portal to all federal, state and local government web resources and services.